Hourly Weather Klenovichi

Today, 21 April, Wednesday

Time Temperature Precipitation Wind Pressure Humidity
00:00 +5°C° 0.1 mm 1 mps 741 mmHg 93%
01:00 +5°C° 0.1 mm 1 mps 741 mmHg 94%
02:00 +5°C° 0 mm 1 mps 740 mmHg 94%
03:00 +5°C° 0 mm 1 mps 740 mmHg 94%
04:00 +5°C° 0 mm 1 mps 740 mmHg 93%
05:00 +5°C° 0 mm 1 mps 739 mmHg 93%
06:00 +5°C° 0 mm 1 mps 739 mmHg 90%
07:00 +5°C° 0 mm 2 mps 739 mmHg 87%
08:00 +5°C° 0 mm 2 mps 739 mmHg 83%
09:00 +6°C° 0 mm 2 mps 739 mmHg 77%
10:00 +7°C° 0 mm 2 mps 739 mmHg 70%
11:00 +8°C° 0 mm 2 mps 739 mmHg 63%
12:00 +9°C° 0.1 mm 3 mps 739 mmHg 62%
13:00 +9°C° 0.1 mm 3 mps 739 mmHg 61%
14:00 +10°C° 0.1 mm 3 mps 739 mmHg 59%
15:00 +10°C° 0 mm 3 mps 739 mmHg 61%
16:00 +10°C° 0 mm 3 mps 739 mmHg 62%
17:00 +10°C° 0 mm 3 mps 738 mmHg 64%
18:00 +9°C° 0 mm 3 mps 739 mmHg 70%
19:00 +8°C° 0 mm 3 mps 739 mmHg 77%
20:00 +7°C° 0 mm 3 mps 739 mmHg 84%
21:00 +7°C° 0.1 mm 3 mps 739 mmHg 87%
22:00 +5°C° 0.1 mm 3 mps 739 mmHg 90%
23:00 +5°C° 0.1 mm 3 mps 739 mmHg 93%

Tomorrow, 22 April, Thursday

Time Temperature Precipitation Wind Pressure Humidity
00:00 +4°C° 0 mm 3 mps 739 mmHg 92%
01:00 +4°C° 0 mm 3 mps 739 mmHg 91%
02:00 +5°C° 0 mm 2 mps 739 mmHg 91%
03:00 +4°C° 0 mm 2 mps 739 mmHg 91%
04:00 +4°C° 0 mm 2 mps 739 mmHg 90%
05:00 +4°C° 0 mm 2 mps 739 mmHg 90%
06:00 +5°C° 0 mm 3 mps 740 mmHg 85%
07:00 +7°C° 0 mm 3 mps 740 mmHg 80%
08:00 +9°C° 0 mm 3 mps 740 mmHg 75%
09:00 +11°C° 0.1 mm 4 mps 740 mmHg 68%
10:00 +12°C° 0.1 mm 4 mps 740 mmHg 61%
11:00 +14°C° 0.1 mm 5 mps 740 mmHg 54%
12:00 +13°C° 0.4 mm 5 mps 740 mmHg 55%
13:00 +13°C° 0.4 mm 5 mps 740 mmHg 57%
14:00 +13°C° 0.4 mm 6 mps 739 mmHg 59%
15:00 +13°C° 0.3 mm 5 mps 739 mmHg 62%
16:00 +12°C° 0.3 mm 5 mps 739 mmHg 65%
17:00 +12°C° 0.3 mm 4 mps 739 mmHg 68%
18:00 +10°C° 0.3 mm 4 mps 740 mmHg 72%
19:00 +9°C° 0.3 mm 3 mps 740 mmHg 77%
20:00 +8°C° 0.3 mm 3 mps 740 mmHg 81%
21:00 +7°C° 0 mm 3 mps 740 mmHg 80%
22:00 +5°C° 0 mm 3 mps 740 mmHg 79%
23:00 +4°C° 0 mm 3 mps 740 mmHg 77%

Day after tomorrow, 23 April, Friday

Time Temperature Precipitation Wind Pressure Humidity
00:00 +4°C° 0 mm 3 mps 741 mmHg 77%
01:00 +3°C° 0 mm 3 mps 741 mmHg 76%
02:00 +3°C° 0 mm 3 mps 741 mmHg 76%
03:00 +3°C° 0 mm 4 mps 741 mmHg 79%
04:00 +1°C° 0 mm 4 mps 741 mmHg 81%
05:00 0°C° 0 mm 4 mps 741 mmHg 84%
06:00 +1°C° 0 mm 4 mps 741 mmHg 79%
07:00 +2°C° 0 mm 5 mps 741 mmHg 75%
08:00 +2°C° 0 mm 5 mps 742 mmHg 70%
09:00 +3°C° 0 mm 5 mps 742 mmHg 67%
10:00 +3°C° 0 mm 5 mps 742 mmHg 64%
11:00 +5°C° 0 mm 5 mps 742 mmHg 60%
12:00 +5°C° 0 mm 5 mps 742 mmHg 60%
13:00 +5°C° 0 mm 5 mps 742 mmHg 59%
14:00 +5°C° 0 mm 5 mps 743 mmHg 58%
15:00 +5°C° 0.1 mm 4 mps 742 mmHg 57%
16:00 +5°C° 0.1 mm 4 mps 742 mmHg 56%
17:00 +6°C° 0.1 mm 4 mps 742 mmHg 54%
18:00 +4°C° 0 mm 3 mps 742 mmHg 60%
19:00 +3°C° 0 mm 3 mps 742 mmHg 65%
20:00 +3°C° 0 mm 2 mps 742 mmHg 71%
21:00 +2°C° 0 mm 2 mps 742 mmHg 73%
22:00 +2°C° 0 mm 2 mps 742 mmHg 75%
23:00 +1°C° 0 mm 2 mps 742 mmHg 77%

24 April, Saturday

Time Temperature Precipitation Wind Pressure Humidity
00:00 -1°C° 0 mm 2 mps 742 mmHg 80%
01:00 -1°C° 0 mm 2 mps 742 mmHg 84%
02:00 -2°C° 0 mm 2 mps 742 mmHg 87%
03:00 -2°C° 0 mm 2 mps 742 mmHg 89%
04:00 -2°C° 0 mm 2 mps 741 mmHg 90%
05:00 -2°C° 0 mm 2 mps 741 mmHg 92%
06:00 -1°C° 0 mm 3 mps 741 mmHg 83%
07:00 -1°C° 0 mm 4 mps 741 mmHg 75%
08:00 +1°C° 0 mm 5 mps 741 mmHg 67%
09:00 +1°C° 0 mm 5 mps 741 mmHg 67%
10:00 +1°C° 0 mm 5 mps 741 mmHg 66%
11:00 +2°C° 0 mm 5 mps 741 mmHg 66%
12:00 +2°C° 0.1 mm 6 mps 741 mmHg 64%
13:00 +3°C° 0.1 mm 6 mps 741 mmHg 61%
14:00 +4°C° 0.1 mm 6 mps 741 mmHg 58%
15:00 +3°C° 0.2 mm 6 mps 741 mmHg 62%
16:00 +3°C° 0.2 mm 5 mps 741 mmHg 65%
17:00 +3°C° 0.2 mm 5 mps 741 mmHg 69%
18:00 +2°C° 0 mm 5 mps 741 mmHg 73%
19:00 +1°C° 0 mm 4 mps 742 mmHg 77%
20:00 +1°C° 0 mm 3 mps 742 mmHg 81%
21:00 +1°C° 0 mm 3 mps 742 mmHg 84%
22:00 -1°C° 0 mm 4 mps 741 mmHg 87%
23:00 -2°C° 0 mm 4 mps 741 mmHg 90%

25 April, Sunday

Time Temperature Precipitation Wind Pressure Humidity
00:00 -2°C° 0 mm 4 mps 741 mmHg 90%
01:00 -2°C° 0 mm 4 mps 741 mmHg 89%
02:00 -4°C° 0 mm 5 mps 741 mmHg 89%
03:00 -4°C° 0 mm 5 mps 741 mmHg 90%
04:00 -4°C° 0 mm 5 mps 740 mmHg 91%
05:00 -4°C° 0 mm 5 mps 740 mmHg 92%
06:00 -3°C° 0.1 mm 6 mps 740 mmHg 90%
07:00 -2°C° 0.1 mm 6 mps 740 mmHg 87%
08:00 -1°C° 0.1 mm 6 mps 740 mmHg 85%
09:00 -1°C° 0.1 mm 6 mps 740 mmHg 80%
10:00 +1°C° 0.1 mm 6 mps 740 mmHg 75%
11:00 +1°C° 0.1 mm 6 mps 741 mmHg 71%
12:00 +2°C° 0.1 mm 6 mps 741 mmHg 68%
13:00 +2°C° 0.1 mm 6 mps 741 mmHg 66%
14:00 +3°C° 0.1 mm 6 mps 740 mmHg 64%
15:00 +3°C° 0.2 mm 5 mps 740 mmHg 65%
16:00 +3°C° 0.2 mm 5 mps 740 mmHg 65%
17:00 +3°C° 0.2 mm 5 mps 740 mmHg 66%
18:00 +2°C° 0.1 mm 5 mps 740 mmHg 74%
19:00 +1°C° 0.1 mm 4 mps 740 mmHg 82%
20:00 -1°C° 0.1 mm 4 mps 740 mmHg 91%
21:00 -1°C° 0.1 mm 4 mps 740 mmHg 91%
22:00 -1°C° 0.1 mm 4 mps 740 mmHg 91%
23:00 -1°C° 0.1 mm 5 mps 740 mmHg 91%

26 April, Monday

Time Temperature Precipitation Wind Pressure Humidity
00:00 -1°C° 0.1 mm 5 mps 740 mmHg 93%
01:00 -1°C° 0.1 mm 4 mps 740 mmHg 94%
02:00 -2°C° 0.1 mm 4 mps 740 mmHg 95%
03:00 -2°C° 0.1 mm 4 mps 740 mmHg 94%
04:00 -2°C° 0.1 mm 4 mps 740 mmHg 93%
05:00 -2°C° 0.1 mm 5 mps 740 mmHg 92%
06:00 -2°C° 0.1 mm 5 mps 740 mmHg 92%
07:00 -1°C° 0.1 mm 5 mps 740 mmHg 92%
08:00 -1°C° 0.1 mm 5 mps 740 mmHg 92%
09:00 -1°C° 0.3 mm 5 mps 740 mmHg 93%
10:00 0°C° 0.3 mm 5 mps 740 mmHg 95%
11:00 0°C° 0.3 mm 5 mps 740 mmHg 96%
12:00 0°C° 0 mm 5 mps 740 mmHg 96%
13:00 0°C° 0 mm 5 mps 741 mmHg 96%
14:00 0°C° 0 mm 5 mps 741 mmHg 96%
15:00 +1°C° 0 mm 5 mps 741 mmHg 94%
16:00 +1°C° 0 mm 5 mps 741 mmHg 92%
17:00 +1°C° 0 mm 5 mps 742 mmHg 90%
18:00 +1°C° 0 mm 5 mps 742 mmHg 90%
19:00 +1°C° 0 mm 4 mps 742 mmHg 91%
20:00 0°C° 0 mm 4 mps 742 mmHg 91%
21:00 +1°C° 0 mm 3 mps 742 mmHg 91%
22:00 0°C° 0 mm 3 mps 742 mmHg 91%
23:00 0°C° 0 mm 3 mps 742 mmHg 91%
Show more

We Need Your Consent

Meteoprog and our Service Providers may store and access personal data such as cookies, device identifiers or other similar technologies on your device and process such data to personalise content and ads, as well as provide social media features and to analyse the traffic.

  • Store and/or access information on your device

    Cookies, device identifiers or other information can be stored or accessed on your device for the purposes indicated above.

  • Personalised ads and content, ad and content measurement, audience insights, and products development

    Ads and content can be personalised based on a profile. More data can be added to better personalise ads and content. Ad and content performance can be measured. Insights about the audience who saw the ads and content can be derived. Such data can be used to develop or improve user’s experience, systems and software.

By clicking ‘I Agree’ you will allow the use of indicated cookies, device identifiers, web beacons or other similar technologies. Your settings can be changed in the browser on your device.

For certain purposes, legitimate interests may be relied on, rather than consent. You can read more about this in our Privacy and Cookie Policy.